Tracking 30923 objects as of 1-Jul-2025
HD Live streaming from Space Station
objects crossing your sky now

STARLINK-5012

Track STARLINK-5012 now!
10-day predictions
STARLINK-5012 is classified as:


NORAD ID: 53918
Int'l Code: 2022-119AJ
Perigee: 546.0 km
Apogee: 547.8 km
Inclination: 53.2 °
Period: 95.4 minutes
Semi major axis: 6917 km
RCS: Unknown
Launch date: September 24, 2022
Source: United States (US)
Launch site: AIR FORCE EASTERN TEST RANGE (AFETR)
Your satellite tracking list
GSAT 9
Track 1 satellite(s)




NASA's NSSDC Master Catalog

Two Line Element Set (TLE):
1 53918U 22119AJ  25181.49686475  .00000369  00000-0  41251-4 0  9992
2 53918  53.2182   6.1622 0001302  93.4970 266.6171 15.08837252153755
Source of the keplerian elements: AFSPC